This is the latest recevied weather packets stored in our database for station/object JS1SZZ-13. If no packets are shown the sender has not sent any weather packets the latest 10 day(s).
| Time | Temp. | Humidity | Pressure | Rain* | Wind** | Luminosity | Snow |
|---|---|---|---|---|---|---|---|
| 1787550901 | 32.22° C | 53% | 1012.1 hPa | 0 mm | - | - | - |
| 1787550000 | 32.22° C | 51% | 1012.1 hPa | 0 mm | - | - | - |
| 1787549100 | 32.78° C | 51% | 1012.3 hPa | 0 mm | - | - | - |
| 1787548199 | 32.78° C | 52% | 1012.1 hPa | 0 mm | - | - | - |
| 1787547301 | 32.22° C | 52% | 1012.2 hPa | 0 mm | - | - | - |
| 1787546400 | 32.22° C | 52% | 1012.7 hPa | 0 mm | - | - | - |
| 1787545499 | 32.78° C | 51% | 1012.6 hPa | 0 mm | - | - | - |
| 1787544601 | 32.78° C | 56% | 1012.7 hPa | 0 mm | - | - | - |
| 1787543700 | 32.22° C | 54% | 1012.8 hPa | 0 mm | - | - | - |
| 1787542800 | 31.67° C | 54% | 1013.1 hPa | 0 mm | - | - | - |
| 1787541899 | 31.11° C | 56% | 1013.1 hPa | 0 mm | - | - | - |
| 1787541001 | 31.67° C | 54% | 1013.2 hPa | 0 mm | - | - | - |
| 1787540100 | 32.78° C | 58% | 1013.1 hPa | 0 mm | - | - | - |
| 1787539199 | 32.22° C | 61% | 1013.4 hPa | 0 mm | - | - | - |
| 1787538300 | 31.67° C | 55% | 1013.5 hPa | 0 mm | - | - | - |
| 1787537399 | 31.67° C | 59% | 1013.6 hPa | 0 mm | - | - | - |
| 1787536501 | 31.67° C | 58% | 1013.9 hPa | 0 mm | - | - | - |
| 1787535600 | 31.67° C | 54% | 1013.8 hPa | 0 mm | - | - | - |
| 1787534699 | 31.67° C | 59% | 1013.9 hPa | 0 mm | - | - | - |
| 1787533801 | 30.56° C | 58% | 1014.1 hPa | 0 mm | - | - | - |
| 1787532899 | 30° C | 58% | 1014.2 hPa | 0 mm | - | - | - |
| 1787532001 | 30° C | 60% | 1014.3 hPa | 0 mm | - | - | - |
| 1787531100 | 30° C | 60% | 1014.3 hPa | 0 mm | - | - | - |
| 1787530200 | 30° C | 62% | 1014.7 hPa | 0 mm | - | - | - |
| 1787529300 | 28.89° C | 63% | 1014.4 hPa | 0 mm | - | - | - |
* Rain latest hour (hover to see other rain measurements)
** Current wind speed in m/s (hover to see current wind gust speed)